datetime,min air temp
2001-09-17,33.26
2001-09-18,30.38
2001-09-19,28.22
2001-09-20,28.58
2001-09-21,27.14
2001-09-22,29.84
2001-09-23,33.98
2001-09-24,45.14
2001-09-25,35.6
2001-09-26,34.34
2001-09-27,34.88
2001-09-28,28.58
2001-09-29,
2001-09-30,31.1
2001-10-01,31.82
2001-10-02,31.82
2001-10-03,28.04
2001-10-04,28.94
2001-10-05,29.12
2001-10-06,27.14
2001-10-07,24.26
2001-10-08,24.8
2001-10-09,14.54
2001-10-10,18.86
2001-10-11,25.16
2001-10-12,21.92
2001-10-13,28.76
2001-10-14,23.54
2001-10-15,27.68
2001-10-16,34.7
2001-10-17,18.14
2001-10-18,13.46
2001-10-19,25.52
2001-10-20,26.42
2001-10-21,28.58
2001-10-22,39.2
2001-10-23,17.96
2001-10-24,14.36
2001-10-25,21.38
2001-10-26,31.1
2001-10-27,41.0
2001-10-28,39.02
2001-10-29,40.1
2001-10-30,36.32
2001-10-31,34.88
2001-11-01,31.28
2001-11-02,26.06
2001-11-03,21.56
2001-11-04,26.42
2001-11-05,26.6
2001-11-06,17.42
2001-11-07,12.02
2001-11-08,16.88
2001-11-09,22.1
2001-11-10,22.82
2001-11-11,30.56
2001-11-12,35.24
2001-11-13,33.8
2001-11-14,36.5
2001-11-15,38.66
2001-11-16,33.26
2001-11-17,18.68
2001-11-18,17.06
2001-11-19,31.64
2001-11-20,31.1
2001-11-21,32.72
2001-11-22,26.6
2001-11-23,18.14
2001-11-24,23.72
2001-11-25,23.54
2001-11-26,-1.48
2001-11-27,-9.76
2001-11-28,23.0
2001-11-29,20.12
2001-11-30,20.66
2001-12-01,27.14
2001-12-02,27.32
2001-12-03,3.56
2001-12-04,17.78
2001-12-05,24.98
2001-12-06,17.78
2001-12-07,6.8
2001-12-08,19.76
2001-12-09,-0.22
2001-12-10,3.92
2001-12-11,19.04
2001-12-12,0.32
2001-12-13,28.22
2001-12-14,12.74
2001-12-15,11.66
2001-12-16,29.84
2001-12-17,18.14
2001-12-18,24.44
2001-12-19,28.58
2001-12-20,7.16
2001-12-21,2.66
2001-12-22,22.28
2001-12-23,5.0
2001-12-24,-2.92
2001-12-25,10.4
2001-12-26,28.76
2001-12-27,26.6
2001-12-28,22.64
2001-12-29,32.72
2001-12-30,26.6
2001-12-31,28.22
2002-01-01,33.98
2002-01-02,30.74
2002-01-03,9.86
2002-01-04,7.34
2002-01-05,31.64
2002-01-06,34.52
2002-01-07,36.86
2002-01-08,23.36
2002-01-09,15.26
2002-01-10,12.38
2002-01-11,23.0
2002-01-12,12.74
2002-01-13,11.3
2002-01-14,8.78
2002-01-15,3.2
2002-01-16,-2.38
2002-01-17,-2.38
2002-01-18,-7.42
2002-01-19,12.2
2002-01-20,20.3
2002-01-21,15.62
2002-01-22,15.44
2002-01-23,13.28
2002-01-24,12.2
2002-01-25,27.86
2002-01-26,9.68
2002-01-27,-14.44
2002-01-28,-19.12
2002-01-29,-21.64
2002-01-30,-15.52
2002-01-31,-2.02
2002-02-01,4.64
2002-02-02,0.14
2002-02-03,4.1
2002-02-04,-1.48
2002-02-05,17.96
2002-02-06,19.94
2002-02-07,22.64
2002-02-08,0.5
2002-02-09,-3.46
2002-02-10,10.76
2002-02-11,15.26
2002-02-12,6.62
2002-02-13,16.52
2002-02-14,10.58
2002-02-15,10.4
2002-02-16,24.62
2002-02-17,25.34
2002-02-18,9.32
2002-02-19,29.3
2002-02-20,32.9
2002-02-21,34.16
2002-02-22,33.62
2002-02-23,29.48
2002-02-24,9.86
2002-02-25,2.48
2002-02-26,12.38
2002-02-27,6.98
2002-02-28,9.68
2002-03-01,-0.9400000000000001
2002-03-02,-0.4
2002-03-03,4.1
2002-03-04,9.32
2002-03-05,30.02
2002-03-06,30.2
2002-03-07,14.0
2002-03-08,-6.34
2002-03-09,19.58
2002-03-10,26.96
2002-03-11,31.46
2002-03-12,20.3
2002-03-13,8.96
2002-03-14,8.06
2002-03-15,8.24
2002-03-16,9.68
2002-03-17,2.48
2002-03-18,-15.52
2002-03-19,24.08
2002-03-20,22.46
2002-03-21,25.7
2002-03-22,30.56
2002-03-23,29.66
2002-03-24,22.64
2002-03-25,14.72
2002-03-26,15.44
2002-03-27,24.62
2002-03-28,22.1
2002-03-29,18.68
2002-03-30,15.44
2002-03-31,15.98
2002-04-01,20.3
2002-04-02,24.98
2002-04-03,23.9
2002-04-04,25.7
2002-04-05,37.04
2002-04-06,27.68
2002-04-07,24.08
2002-04-08,20.66
2002-04-09,35.06
2002-04-10,33.98
2002-04-11,30.38
2002-04-12,29.48
2002-04-13,35.06
2002-04-14,25.88
2002-04-15,21.38
2002-04-16,24.8
2002-04-17,21.56
2002-04-18,15.8
2002-04-19,23.0
2002-04-20,15.26
2002-04-21,21.38
2002-04-22,23.18
2002-04-23,22.64
2002-04-24,18.68
2002-04-25,23.9
2002-04-26,27.86
2002-04-27,26.96
2002-04-28,21.38
2002-04-29,28.22
2002-04-30,32.0
2002-05-01,29.48
2002-05-02,25.88
2002-05-03,27.68
2002-05-04,21.74
2002-05-05,35.78
2002-05-06,29.12
2002-05-07,19.58
2002-05-08,15.08
2002-05-09,26.06
2002-05-10,26.96
2002-05-11,20.84
2002-05-12,25.52
2002-05-13,28.76
2002-05-14,22.28
2002-05-15,26.42
2002-05-16,23.72
2002-05-17,30.74
2002-05-18,41.36
2002-05-19,34.16
2002-05-20,31.1
2002-05-21,31.28
2002-05-22,26.78
2002-05-23,22.28
2002-05-24,26.42
2002-05-25,33.26
2002-05-26,35.06
2002-05-27,39.92
2002-05-28,44.42
2002-05-29,43.34
2002-05-30,37.76
2002-05-31,31.28
2002-06-01,36.86
2002-06-02,30.02
2002-06-03,29.66
2002-06-04,31.28
2002-06-05,34.34
2002-06-06,27.68
2002-06-07,27.14
2002-06-08,20.12
2002-06-09,27.32
2002-06-10,30.02
2002-06-11,27.5
2002-06-12,33.08
2002-06-13,34.52
2002-06-14,41.0
2002-06-15,35.6
2002-06-16,36.5
2002-06-17,34.7
2002-06-18,28.22
2002-06-19,24.98
2002-06-20,29.3
2002-06-21,46.04
2002-06-22,43.34
2002-06-23,40.82
2002-06-24,37.04
2002-06-25,39.74
2002-06-26,43.7
2002-06-27,42.26
2002-06-28,47.84
2002-06-29,40.1
2002-06-30,34.34
2002-07-01,28.76
2002-07-02,33.44
2002-07-03,37.4
2002-07-04,30.74
2002-07-05,32.72
2002-07-06,36.14
2002-07-07,39.02
2002-07-08,32.9
2002-07-09,37.04
2002-07-10,42.8
2002-07-11,45.5
2002-07-12,50.54
2002-07-13,49.46
2002-07-14,47.3
2002-07-15,40.28
2002-07-16,36.86
2002-07-17,33.26
2002-07-18,40.1
2002-07-19,45.68
2002-07-20,37.76
2002-07-21,40.64
2002-07-22,44.42
2002-07-23,38.66
2002-07-24,34.88
2002-07-25,38.48
2002-07-26,35.6
2002-07-27,34.7
2002-07-28,32.54
2002-07-29,38.84
2002-07-30,41.54
2002-07-31,35.24
2002-08-01,33.98
2002-08-02,31.82
2002-08-03,35.24
2002-08-04,29.12
2002-08-05,22.82
2002-08-06,28.04
2002-08-07,26.78
2002-08-08,27.5
2002-08-09,33.62
2002-08-10,34.7
2002-08-11,34.52
2002-08-12,35.78
2002-08-13,39.56
2002-08-14,37.58
2002-08-15,35.24
2002-08-16,32.9
2002-08-17,32.72
2002-08-18,27.68
2002-08-19,31.64
2002-08-20,28.04
2002-08-21,25.34
2002-08-22,28.22
2002-08-23,34.52
2002-08-24,31.28
2002-08-25,32.72
2002-08-26,29.3
2002-08-27,32.0
2002-08-28,37.94
2002-08-29,37.58
2002-08-30,36.86
2002-08-31,27.32
2002-09-01,31.28
2002-09-02,34.88
2002-09-03,38.66
2002-09-04,37.4
2002-09-05,29.3
2002-09-06,23.18
2002-09-07,22.82
2002-09-08,19.94
2002-09-09,25.7
2002-09-10,29.48
2002-09-11,30.56
2002-09-12,31.28
2002-09-13,36.14
2002-09-14,35.06
2002-09-15,45.86
2002-09-16,32.72
2002-09-17,43.16
2002-09-18,32.0
2002-09-19,29.48
2002-09-20,27.68
2002-09-21,28.76
2002-09-22,28.58
2002-09-23,33.98
2002-09-24,30.56
2002-09-25,27.14
2002-09-26,22.64
2002-09-27,26.6
2002-09-28,26.24
2002-09-29,
2002-09-30,23.72
2002-10-01,20.3
2002-10-02,25.16
2002-10-03,23.36
2002-10-04,30.38
2002-10-05,29.12
2002-10-06,28.58
2002-10-07,24.62
2002-10-08,25.16
2002-10-09,22.82
2002-10-10,20.66
2002-10-11,7.88
2002-10-12,16.52
2002-10-13,16.7
2002-10-14,20.84
2002-10-15,24.26
2002-10-16,26.6
2002-10-17,21.2
2002-10-18,22.1
2002-10-19,21.74
2002-10-20,23.54
2002-10-21,26.78
2002-10-22,19.22
2002-10-23,19.76
2002-10-24,19.04
2002-10-25,15.62
2002-10-26,16.7
2002-10-27,13.64
2002-10-28,21.02
2002-10-29,19.22
2002-10-30,0.5
2002-10-31,-3.8200000000000003
2002-11-01,3.56
2002-11-02,-4.54
2002-11-03,2.12
2002-11-04,11.66
2002-11-05,16.88
2002-11-06,35.06
2002-11-07,33.26
2002-11-08,32.0
2002-11-09,30.38
2002-11-10,29.84
2002-11-11,26.6
2002-11-12,35.06
2002-11-13,21.2
2002-11-14,17.06
2002-11-15,13.64
2002-11-16,34.34
2002-11-17,19.76
2002-11-18,21.92
2002-11-19,30.2
2002-11-20,28.04
2002-11-21,28.22
2002-11-22,26.24
2002-11-23,25.52
2002-11-24,21.02
2002-11-25,9.14
2002-11-26,14.0
2002-11-27,21.92
2002-11-28,24.62
2002-11-29,22.82
2002-11-30,25.34
2002-12-01,21.92
2002-12-02,16.34
2002-12-03,17.78
2002-12-04,24.62
2002-12-05,18.5
2002-12-06,21.92
2002-12-07,16.7
2002-12-08,15.62
2002-12-09,33.62
2002-12-10,30.74
2002-12-11,29.66
2002-12-12,33.08
2002-12-13,33.08
2002-12-14,31.28
2002-12-15,28.22
2002-12-16,19.22
2002-12-17,15.44
2002-12-18,20.84
2002-12-19,23.36
2002-12-20,25.52
2002-12-21,23.72
2002-12-22,13.1
2002-12-23,-5.62
2002-12-24,0.68
2002-12-25,17.6
2002-12-26,28.22
2002-12-27,32.9
2002-12-28,27.68
2002-12-29,25.52
2002-12-30,27.32
2002-12-31,14.72
2003-01-01,20.66
2003-01-02,33.26
2003-01-03,32.36
2003-01-04,33.62
2003-01-05,13.82
2003-01-06,13.46
2003-01-07,15.44
2003-01-08,13.64
2003-01-09,16.34
2003-01-10,22.46
2003-01-11,31.28
2003-01-12,33.08
2003-01-13,35.06
2003-01-14,28.4
2003-01-15,19.94
2003-01-16,17.6
2003-01-17,21.74
2003-01-18,20.48
2003-01-19,19.04
2003-01-20,18.86
2003-01-21,29.12
2003-01-22,34.16
2003-01-23,24.44
2003-01-24,24.8
2003-01-25,35.78
2003-01-26,39.92
2003-01-27,16.16
2003-01-28,14.0
2003-01-29,21.02
2003-01-30,37.4
2003-01-31,39.92
2003-02-01,23.72
2003-02-02,14.54
2003-02-03,5.0
2003-02-04,3.2
2003-02-05,-3.46
2003-02-06,14.18
2003-02-07,-1.12
2003-02-08,0.14
2003-02-09,5.0
2003-02-10,6.98
2003-02-11,3.56
2003-02-12,19.94
2003-02-13,34.16
2003-02-14,30.74
2003-02-15,32.36
2003-02-16,26.06
2003-02-17,24.62
2003-02-18,19.22
2003-02-19,20.48
2003-02-20,19.22
2003-02-21,29.66
2003-02-22,12.38
2003-02-23,2.66
2003-02-24,15.44
2003-02-25,-3.1
2003-02-26,-4.36
2003-02-27,3.2
2003-02-28,-2.92
2003-03-01,7.88
2003-03-02,-0.22
2003-03-03,7.7
2003-03-04,1.22
2003-03-05,9.14
2003-03-06,28.58
2003-03-07,29.3
2003-03-08,29.3
2003-03-09,33.44
2003-03-10,31.46
2003-03-11,30.2
2003-03-12,34.88
2003-03-13,33.44
2003-03-14,32.18
2003-03-15,27.86
2003-03-16,28.04
2003-03-17,14.54
2003-03-18,3.2
2003-03-19,14.54
2003-03-20,29.12
2003-03-21,30.56
2003-03-22,23.54
2003-03-23,16.52
2003-03-24,14.18
2003-03-25,33.98
2003-03-26,26.42
2003-03-27,19.4
2003-03-28,13.82
2003-03-29,21.92
2003-03-30,26.42
2003-03-31,33.08
2003-04-01,24.62
2003-04-02,18.86
2003-04-03,20.3
2003-04-04,20.66
2003-04-05,17.96
2003-04-06,26.78
2003-04-07,29.84
2003-04-08,39.38
2003-04-09,36.5
2003-04-10,37.76
2003-04-11,33.8
2003-04-12,30.02
2003-04-13,28.22
2003-04-14,24.98
2003-04-15,14.18
2003-04-16,26.78
2003-04-17,25.34
2003-04-18,21.74
2003-04-19,15.8
2003-04-20,25.16
2003-04-21,32.9
2003-04-22,28.04
2003-04-23,25.88
2003-04-24,25.52
2003-04-25,24.26
2003-04-26,14.18
2003-04-27,12.74
2003-04-28,28.58
2003-04-29,29.66
2003-04-30,24.44
2003-05-01,20.3
2003-05-02,26.78
2003-05-03,29.84
2003-05-04,26.96
2003-05-05,22.82
2003-05-06,19.94
2003-05-07,29.48
2003-05-08,28.04
2003-05-09,27.5
2003-05-10,32.18
2003-05-11,27.5
2003-05-12,29.66
2003-05-13,26.96
2003-05-14,28.94
2003-05-15,28.4
2003-05-16,20.84
2003-05-17,22.82
2003-05-18,18.32
2003-05-19,20.12
2003-05-20,27.32
2003-05-21,30.2
2003-05-22,32.9
2003-05-23,35.78
2003-05-24,37.58
2003-05-25,41.54
2003-05-26,37.76
2003-05-27,32.18
2003-05-28,45.14
2003-05-29,40.1
2003-05-30,40.82
2003-05-31,33.98
2003-06-01,29.48
2003-06-02,32.72
2003-06-03,32.72
2003-06-04,33.44
2003-06-05,31.46
2003-06-06,34.7
2003-06-07,42.44
2003-06-08,39.92
2003-06-09,30.2
2003-06-10,27.68
2003-06-11,27.68
2003-06-12,32.18
2003-06-13,36.68
2003-06-14,31.28
2003-06-15,32.9
2003-06-16,36.32
2003-06-17,38.3
2003-06-18,46.4
2003-06-19,31.82
2003-06-20,27.86
2003-06-21,27.68
2003-06-22,24.8
2003-06-23,28.58
2003-06-24,26.42
2003-06-25,30.02
2003-06-26,32.9
2003-06-27,36.32
2003-06-28,36.14
2003-06-29,41.54
2003-06-30,37.58
2003-07-01,33.08
2003-07-02,32.0
2003-07-03,32.36
2003-07-04,33.08
2003-07-05,34.16
2003-07-06,35.96
2003-07-07,35.78
2003-07-08,33.44
2003-07-09,31.1
2003-07-10,36.5
2003-07-11,37.22
2003-07-12,36.68
2003-07-13,34.52
2003-07-14,33.26
2003-07-15,38.12
2003-07-16,39.2
2003-07-17,37.76
2003-07-18,39.2
2003-07-19,40.82
2003-07-20,46.04
2003-07-21,47.12
2003-07-22,50.9
2003-07-23,50.18
2003-07-24,50.0
2003-07-25,50.72
2003-07-26,48.02
2003-07-27,41.36
2003-07-28,43.52
2003-07-29,46.22
2003-07-30,43.52
2003-07-31,41.72
2003-08-01,48.92
2003-08-02,53.42
2003-08-03,44.24
2003-08-04,38.3
2003-08-05,41.36
2003-08-06,34.52
2003-08-07,38.12
2003-08-08,33.08
2003-08-09,33.08
2003-08-10,42.8
2003-08-11,35.42
2003-08-12,29.66
2003-08-13,28.94
2003-08-14,33.44
2003-08-15,41.72
2003-08-16,29.84
2003-08-17,35.06
2003-08-18,
2003-08-19,46.22
2003-08-20,36.68
2003-08-21,40.28
2003-08-22,39.74
2003-08-23,32.9
2003-08-24,32.9
2003-08-25,35.06
2003-08-26,35.78
2003-08-27,36.32
2003-08-28,36.14
2003-08-29,36.86
2003-08-30,36.5
2003-08-31,38.48
2003-09-01,35.42
2003-09-02,38.3
2003-09-03,39.74
2003-09-04,43.88
2003-09-05,41.18
2003-09-06,33.26
2003-09-07,38.3
2003-09-08,31.46
2003-09-09,32.54
2003-09-10,28.4
2003-09-11,43.16
2003-09-12,30.38
2003-09-13,28.76
2003-09-14,26.42
2003-09-15,35.78
2003-09-16,30.56
2003-09-17,24.44
2003-09-18,23.36
2003-09-19,28.22
2003-09-20,25.88
2003-09-21,28.58
2003-09-22,31.46
2003-09-23,27.14
2003-09-24,29.48
2003-09-25,25.16
2003-09-26,36.14
2003-09-27,37.22
2003-09-28,37.4
2003-09-29,
2003-09-30,25.52
2003-10-01,37.22
2003-10-02,31.64
2003-10-03,29.48
2003-10-04,35.78
2003-10-05,35.06
2003-10-06,30.2
2003-10-07,32.72
2003-10-08,34.7
2003-10-09,23.54
2003-10-10,16.52
2003-10-11,20.66
2003-10-12,19.94
2003-10-13,10.76
2003-10-14,24.62
2003-10-15,23.72
2003-10-16,39.92
2003-10-17,44.42
2003-10-18,48.92
2003-10-19,45.5
2003-10-20,33.62
2003-10-21,30.74
2003-10-22,42.8
2003-10-23,23.72
2003-10-24,19.58
2003-10-25,23.9
2003-10-26,28.76
2003-10-27,25.34
2003-10-28,30.74
2003-10-29,17.78
2003-10-30,16.7
2003-10-31,3.92
2003-11-01,-2.92
2003-11-02,16.88
2003-11-03,12.2
2003-11-04,13.46
2003-11-05,14.72
2003-11-06,5.72
2003-11-07,32.18
2003-11-08,31.46
2003-11-09,30.56
2003-11-10,27.5
2003-11-11,24.8
2003-11-12,21.02
2003-11-13,15.8
2003-11-14,32.0
2003-11-15,30.92
2003-11-16,30.74
2003-11-17,30.74
2003-11-18,33.62
2003-11-19,28.94
2003-11-20,9.5
2003-11-21,15.08
2003-11-22,-6.34
2003-11-23,-0.58
2003-11-24,3.92
2003-11-25,2.48
2003-11-26,1.58
2003-11-27,-0.9400000000000001
2003-11-28,33.98
2003-11-29,33.98
2003-11-30,33.98
2003-12-01,34.52
2003-12-02,33.8
2003-12-03,24.26
2003-12-04,24.26
2003-12-05,35.78
2003-12-06,30.02
2003-12-07,25.88
2003-12-08,14.0
2003-12-09,23.72
2003-12-10,26.42
2003-12-11,23.54
2003-12-12,28.76
2003-12-13,30.74
2003-12-14,20.66
2003-12-15,-2.74
2003-12-16,16.7
2003-12-17,19.4
2003-12-18,14.54
2003-12-19,31.64
2003-12-20,28.58
2003-12-21,13.82
2003-12-22,12.56
2003-12-23,32.9
2003-12-24,25.7
2003-12-25,8.6
2003-12-26,-7.96
2003-12-27,3.2
2003-12-28,22.1
2003-12-29,21.92
2003-12-30,12.74
2003-12-31,25.34
2004-01-01,19.76
2004-01-02,12.74
2004-01-03,15.8
2004-01-04,15.8
2004-01-05,1.76
2004-01-06,26.42
2004-01-07,26.6
2004-01-08,33.08
2004-01-09,30.92
2004-01-10,25.7
2004-01-11,24.62
2004-01-12,24.26
2004-01-13,34.88
2004-01-14,33.62
2004-01-15,23.54
2004-01-16,12.38
2004-01-17,14.9
2004-01-18,24.62
2004-01-19,25.52
2004-01-20,8.06
2004-01-21,3.02
2004-01-22,0.14
2004-01-23,16.7
2004-01-24,14.72
2004-01-25,
2004-01-26,19.04
2004-01-27,25.88
2004-01-28,28.76
2004-01-29,33.62
2004-01-30,17.24
2004-01-31,9.32
2004-02-01,25.16
2004-02-02,27.5
2004-02-03,12.92
2004-02-04,6.8
2004-02-05,-3.46
2004-02-06,17.42
2004-02-07,8.96
2004-02-08,-4.18
2004-02-09,0.68
2004-02-10,-1.12
2004-02-11,4.64
2004-02-12,-1.48
2004-02-13,28.4
2004-02-14,25.88
2004-02-15,20.84
2004-02-16,32.72
2004-02-17,33.08
2004-02-18,20.84
2004-02-19,10.94
2004-02-20,5.72
2004-02-21,21.92
2004-02-22,25.34
2004-02-23,25.52
2004-02-24,28.04
2004-02-25,29.3
2004-02-26,26.42
2004-02-27,12.92
2004-02-28,20.3
2004-02-29,12.38
2004-03-01,27.32
2004-03-02,10.04
2004-03-03,3.2
2004-03-04,17.06
2004-03-05,8.6
2004-03-06,21.74
2004-03-07,18.14
2004-03-08,22.46
2004-03-09,24.8
2004-03-10,14.36
2004-03-11,19.04
2004-03-12,21.02
2004-03-13,18.68
2004-03-14,24.8
2004-03-15,16.7
2004-03-16,19.76
2004-03-17,20.84
2004-03-18,26.24
2004-03-19,24.8
2004-03-20,22.1
2004-03-21,33.62
2004-03-22,29.48
2004-03-23,27.32
2004-03-24,33.08
2004-03-25,23.54
2004-03-26,23.72
2004-03-27,22.46
2004-03-28,14.36
2004-03-29,24.44
2004-03-30,23.0
2004-03-31,16.34
2004-04-01,17.42
2004-04-02,24.98
2004-04-03,28.4
2004-04-04,28.04
2004-04-05,29.48
2004-04-06,27.68
2004-04-07,22.46
2004-04-08,24.98
2004-04-09,20.84
2004-04-10,23.18
2004-04-11,23.0
2004-04-12,28.4
2004-04-13,31.64
2004-04-14,25.34
2004-04-15,23.18
2004-04-16,17.42
2004-04-17,23.36
2004-04-18,26.6
2004-04-19,28.04
2004-04-20,30.02
2004-04-21,26.78
2004-04-22,25.7
2004-04-23,21.92
2004-04-24,22.1
2004-04-25,25.7
2004-04-26,28.4
2004-04-27,29.66
2004-04-28,26.96
2004-04-29,22.64
2004-04-30,21.92
2004-05-01,27.32
2004-05-02,30.02
2004-05-03,30.02
2004-05-04,30.2
2004-05-05,33.98
2004-05-06,41.18
2004-05-07,37.76
2004-05-08,28.22
2004-05-09,24.98
2004-05-10,31.28
2004-05-11,28.94
2004-05-12,24.98
2004-05-13,23.9
2004-05-14,27.86
2004-05-15,31.28
2004-05-16,24.62
2004-05-17,33.26
2004-05-18,32.9
2004-05-19,32.0
2004-05-20,30.02
2004-05-21,36.5
2004-05-22,33.44
2004-05-23,29.3
2004-05-24,29.12
2004-05-25,30.38
2004-05-26,37.94
2004-05-27,39.92
2004-05-28,32.54
2004-05-29,30.38
2004-05-30,26.96
2004-05-31,26.78
2004-06-01,30.02
2004-06-02,33.98
2004-06-03,35.6
2004-06-04,37.4
2004-06-05,37.4
2004-06-06,30.92
2004-06-07,29.3
2004-06-08,30.56
2004-06-09,32.72
2004-06-10,29.3
2004-06-11,24.98
2004-06-12,29.3
2004-06-13,35.78
2004-06-14,28.4
2004-06-15,30.38
2004-06-16,33.08
2004-06-17,28.04
2004-06-18,33.98
2004-06-19,33.08
2004-06-20,32.9
2004-06-21,32.0
2004-06-22,33.98
2004-06-23,
2004-06-24,39.74
2004-06-25,32.72
2004-06-26,34.34
2004-06-27,35.06
2004-06-28,40.64
2004-06-29,44.06
2004-06-30,37.04
2004-07-01,37.58
2004-07-02,36.86
2004-07-03,40.28
2004-07-04,35.24
2004-07-05,35.78
2004-07-06,36.32
2004-07-07,36.32
2004-07-08,28.76
2004-07-09,36.32
2004-07-10,32.18
2004-07-11,29.84
2004-07-12,31.82
2004-07-13,33.08
2004-07-14,30.74
2004-07-15,29.12
2004-07-16,33.44
2004-07-17,50.18
2004-07-18,45.5
2004-07-19,46.4
2004-07-20,40.28
2004-07-21,39.2
2004-07-22,39.74
2004-07-23,42.26
2004-07-24,40.1
2004-07-25,45.86
2004-07-26,40.46
2004-07-27,37.94
2004-07-28,39.38
2004-07-29,39.2
2004-07-30,40.46
2004-07-31,38.3
2004-08-01,36.32
2004-08-02,33.44
2004-08-03,32.0
2004-08-04,38.12
2004-08-05,38.84
2004-08-06,34.52
2004-08-07,28.22
2004-08-08,32.9
2004-08-09,38.12
2004-08-10,39.02
2004-08-11,44.96
2004-08-12,39.38
2004-08-13,43.34
2004-08-14,48.2
2004-08-15,44.24
2004-08-16,42.98
2004-08-17,40.46
2004-08-18,41.0
2004-08-19,40.82
2004-08-20,42.44
2004-08-21,41.54
2004-08-22,40.28
2004-08-23,32.18
2004-08-24,35.78
2004-08-25,41.72
2004-08-26,34.88
2004-08-27,30.92
2004-08-28,32.9
2004-08-29,36.32
2004-08-30,36.68
2004-08-31,36.32
2004-09-01,31.46
2004-09-02,26.24
2004-09-03,28.94
2004-09-04,28.94
2004-09-05,27.14
2004-09-06,28.58
2004-09-07,30.02
2004-09-08,29.66
2004-09-09,27.68
2004-09-10,27.68
2004-09-11,35.06
2004-09-12,29.84
2004-09-13,28.22
2004-09-14,21.2
2004-09-15,28.4
2004-09-16,24.62
2004-09-17,37.04
2004-09-18,23.9
2004-09-19,25.34
2004-09-20,26.42
2004-09-21,21.2
2004-09-22,27.32
2004-09-23,28.58
2004-09-24,29.48
2004-09-25,28.22
2004-09-26,28.94
2004-09-27,30.92
2004-09-28,30.92
2004-09-29,
2004-09-30,28.94
2004-10-01,26.96
2004-10-02,27.86
2004-10-03,27.86
2004-10-04,31.28
2004-10-05,27.68
2004-10-06,28.76
2004-10-07,30.92
2004-10-08,31.46
2004-10-09,26.96
2004-10-10,23.36
2004-10-11,22.46
2004-10-12,26.96
2004-10-13,29.84
2004-10-14,27.68
2004-10-15,26.06
2004-10-16,24.08
2004-10-17,30.38
2004-10-18,30.74
2004-10-19,32.18
2004-10-20,30.74
2004-10-21,25.88
2004-10-22,29.12
2004-10-23,22.46
2004-10-24,17.42
2004-10-25,12.92
2004-10-26,9.32
2004-10-27,11.3
2004-10-28,33.26
2004-10-29,25.52
2004-10-30,25.88
2004-10-31,11.48
2004-11-01,11.48
2004-11-02,25.7
2004-11-03,21.2
2004-11-04,17.78
2004-11-05,14.0
2004-11-06,17.06
2004-11-07,18.68
2004-11-08,26.06
2004-11-09,24.62
2004-11-10,28.4
2004-11-11,26.96
2004-11-12,30.92
2004-11-13,23.0
2004-11-14,20.84
2004-11-15,29.12
2004-11-16,25.34
2004-11-17,18.86
2004-11-18,21.92
2004-11-19,15.8
2004-11-20,9.32
2004-11-21,10.58
2004-11-22,17.06
2004-11-23,14.54
2004-11-24,25.52
2004-11-25,28.4
2004-11-26,13.82
2004-11-27,17.06
2004-11-28,-2.2
2004-11-29,-6.52
2004-11-30,12.92
2004-12-01,15.26
2004-12-02,7.34
2004-12-03,3.56
2004-12-04,15.98
2004-12-05,23.9
2004-12-06,24.26
2004-12-07,29.12
2004-12-08,30.02
2004-12-09,36.14
2004-12-10,35.96
2004-12-11,35.6
2004-12-12,29.84
2004-12-13,37.22
2004-12-14,19.22
2004-12-15,13.46
2004-12-16,14.72
2004-12-17,16.34
2004-12-18,21.74
2004-12-19,21.38
2004-12-20,15.44
2004-12-21,8.06
2004-12-22,10.04
2004-12-23,8.78
2004-12-24,6.8
2004-12-25,15.26
2004-12-26,26.78
2004-12-27,27.86
2004-12-28,26.6
2004-12-29,25.7
2004-12-30,17.78
2004-12-31,21.38
2005-01-01,22.46
2005-01-02,2.84
2005-01-03,-4.9
2005-01-04,-5.98
2005-01-05,19.4
2005-01-06,23.0
2005-01-07,19.4
2005-01-08,18.5
2005-01-09,23.72
2005-01-10,10.76
2005-01-11,-5.62
2005-01-12,-11.74
2005-01-13,-7.24
2005-01-14,10.76
2005-01-15,29.3
2005-01-16,23.18
2005-01-17,25.52
2005-01-18,30.2
2005-01-19,28.22
2005-01-20,21.2
2005-01-21,17.6
2005-01-22,19.04
2005-01-23,22.64
2005-01-24,19.04
2005-01-25,32.9
2005-01-26,34.16
2005-01-27,29.3
2005-01-28,25.52
2005-01-29,12.38
2005-01-30,9.14
2005-01-31,10.58
2005-02-01,2.66
2005-02-02,14.18
2005-02-03,16.52
2005-02-04,22.82
2005-02-05,14.0
2005-02-06,6.8
2005-02-07,0.14
2005-02-08,-5.44
2005-02-09,2.3
2005-02-10,-2.38
2005-02-11,10.76
2005-02-12,14.72
2005-02-13,24.8
2005-02-14,-0.9400000000000001
2005-02-15,-11.02
2005-02-16,0.14
2005-02-17,16.16
2005-02-18,17.06
2005-02-19,31.1
2005-02-20,16.16
2005-02-21,13.46
2005-02-22,23.72
2005-02-23,19.04
2005-02-24,9.32
2005-02-25,12.56
2005-02-26,13.64
2005-02-27,25.16
2005-02-28,22.82
2005-03-01,17.42
2005-03-02,14.18
2005-03-03,8.96
2005-03-04,23.18
2005-03-05,17.78
2005-03-06,19.94
2005-03-07,24.26
2005-03-08,21.74
2005-03-09,22.46
2005-03-10,22.28
2005-03-11,21.38
2005-03-12,24.44
2005-03-13,21.92
2005-03-14,12.74
2005-03-15,14.72
2005-03-16,24.62
2005-03-17,22.28
2005-03-18,22.64
2005-03-19,30.92
2005-03-20,27.68
2005-03-21,28.76
2005-03-22,25.16
2005-03-23,24.26
2005-03-24,14.0
2005-03-25,15.98
2005-03-26,27.5
2005-03-27,32.0
2005-03-28,28.58
2005-03-29,19.76
2005-03-30,10.58
2005-03-31,5.54
2005-04-01,25.52
2005-04-02,19.76
2005-04-03,25.88
2005-04-04,21.2
2005-04-05,23.72
2005-04-06,33.44
2005-04-07,24.62
2005-04-08,24.44
2005-04-09,20.48
2005-04-10,12.56
2005-04-11,29.12
2005-04-12,25.16
2005-04-13,21.2
2005-04-14,18.5
2005-04-15,15.8
2005-04-16,26.6
2005-04-17,20.84
2005-04-18,20.3
2005-04-19,24.8
2005-04-20,31.82
2005-04-21,28.4
2005-04-22,26.78
2005-04-23,31.82
2005-04-24,25.7
2005-04-25,28.76
2005-04-26,26.06
2005-04-27,28.58
2005-04-28,33.8
2005-04-29,32.18
2005-04-30,29.66
2005-05-01,28.58
2005-05-02,35.24
2005-05-03,30.38
2005-05-04,39.56
2005-05-05,38.12
2005-05-06,37.04
2005-05-07,35.78
2005-05-08,35.6
2005-05-09,31.1
2005-05-10,30.38
2005-05-11,30.38
2005-05-12,26.42
2005-05-13,30.92
2005-05-14,34.88
2005-05-15,40.1
2005-05-16,29.66
2005-05-17,29.84
2005-05-18,33.8
2005-05-19,31.28
2005-05-20,30.56
2005-05-21,26.96
2005-05-22,32.9
2005-05-23,26.42
2005-05-24,26.78
2005-05-25,28.58
2005-05-26,32.54
2005-05-27,36.86
2005-05-28,40.46
2005-05-29,41.18
2005-05-30,40.64
2005-05-31,36.14
2005-06-01,30.38
2005-06-02,29.12
2005-06-03,25.7
2005-06-04,28.58
2005-06-05,31.64
2005-06-06,28.58
2005-06-07,26.24
2005-06-08,26.6
2005-06-09,27.68
2005-06-10,34.16
2005-06-11,32.54
2005-06-12,25.52
2005-06-13,29.12
2005-06-14,32.9
2005-06-15,28.76
2005-06-16,38.12
2005-06-17,33.8
2005-06-18,35.24
2005-06-19,31.46
2005-06-20,30.92
2005-06-21,33.08
2005-06-22,
2005-06-23,32.9
2005-06-24,36.14
2005-06-25,38.66
2005-06-26,35.6
2005-06-27,42.44
2005-06-28,39.74
2005-06-29,34.88
2005-06-30,36.32
2005-07-01,36.68
2005-07-02,29.66
2005-07-03,30.74
2005-07-04,34.52
2005-07-05,37.94
2005-07-06,38.12
2005-07-07,37.22
2005-07-08,41.72
2005-07-09,47.12
2005-07-10,40.82
2005-07-11,35.96
2005-07-12,36.5
2005-07-13,38.66
2005-07-14,37.58
2005-07-15,43.52
2005-07-16,41.54
2005-07-17,37.94
2005-07-18,39.2
2005-07-19,40.46
2005-07-20,38.66
2005-07-21,42.08
2005-07-22,42.98
2005-07-23,37.94
2005-07-24,36.68
2005-07-25,28.76
2005-07-26,36.5
2005-07-27,36.5
2005-07-28,37.94
2005-07-29,39.56
2005-07-30,38.66
2005-07-31,41.72
2005-08-01,41.36
2005-08-02,43.34
2005-08-03,37.4
2005-08-04,41.18
2005-08-05,40.82
2005-08-06,44.96
2005-08-07,42.08
2005-08-08,41.18
2005-08-09,39.74
2005-08-10,35.96
2005-08-11,31.1
2005-08-12,33.44
2005-08-13,33.08
2005-08-14,34.16
2005-08-15,37.4
2005-08-16,38.48